Stündliche Wetter Cayambe

Heute, 30 Oktober, Freitag

Zeit Temperatur Niederschläge Wind Luftdruck Luftfeuchtigkeit
00:00 +11°C° 0.1 mm 1 m/S 529 mmHg 95%
01:00 +10°C° 0.1 mm 2 m/S 528 mmHg 95%
02:00 +10°C° 0.1 mm 2 m/S 528 mmHg 95%
03:00 +10°C° 0.1 mm 2 m/S 528 mmHg 95%
04:00 +9°C° 0.1 mm 2 m/S 528 mmHg 95%
05:00 +11°C° 0 mm 1 m/S 529 mmHg 93%
06:00 +11°C° 0 mm 1 m/S 529 mmHg 92%
07:00 +10°C° 0 mm 0 m/S 530 mmHg 90%
08:00 +13°C° 0.1 mm 1 m/S 531 mmHg 82%
09:00 +14°C° 0.1 mm 1 m/S 532 mmHg 74%
10:00 +16°C° 0.1 mm 1 m/S 533 mmHg 67%
11:00 +16°C° 0.6 mm 2 m/S 533 mmHg 67%
12:00 +17°C° 0.6 mm 2 m/S 532 mmHg 67%
13:00 +17°C° 0.6 mm 2 m/S 532 mmHg 68%
14:00 +16°C° 0.5 mm 2 m/S 531 mmHg 70%
15:00 +16°C° 0.5 mm 2 m/S 531 mmHg 72%
16:00 +16°C° 0.5 mm 2 m/S 530 mmHg 74%
17:00 +14°C° 0.1 mm 2 m/S 530 mmHg 81%
18:00 +13°C° 0.1 mm 1 m/S 529 mmHg 89%
19:00 +11°C° 0.1 mm 1 m/S 529 mmHg 96%
20:00 +11°C° 0 mm 1 m/S 529 mmHg 96%
21:00 +11°C° 0 mm 1 m/S 529 mmHg 95%
22:00 +11°C° 0 mm 1 m/S 529 mmHg 95%
23:00 +10°C° 0 mm 1 m/S 529 mmHg 94%

Morgen, 31 Oktober, Samstag

Zeit Temperatur Niederschläge Wind Luftdruck Luftfeuchtigkeit
00:00 +10°C° 0 mm 1 m/S 529 mmHg 93%
01:00 +10°C° 0 mm 1 m/S 529 mmHg 93%
02:00 +10°C° 0 mm 1 m/S 528 mmHg 93%
03:00 +9°C° 0 mm 1 m/S 528 mmHg 93%
04:00 +8°C° 0 mm 0 m/S 528 mmHg 92%
05:00 +9°C° 0 mm 0 m/S 528 mmHg 88%
06:00 +9°C° 0 mm 0 m/S 529 mmHg 84%
07:00 +10°C° 0 mm 0 m/S 530 mmHg 79%
08:00 +13°C° 0 mm 1 m/S 531 mmHg 71%
09:00 +15°C° 0 mm 1 m/S 533 mmHg 63%
10:00 +17°C° 0 mm 2 m/S 534 mmHg 54%
11:00 +17°C° 0.2 mm 2 m/S 533 mmHg 58%
12:00 +17°C° 0.2 mm 2 m/S 533 mmHg 61%
13:00 +17°C° 0.2 mm 2 m/S 532 mmHg 64%
14:00 +16°C° 1 mm 2 m/S 531 mmHg 71%
15:00 +15°C° 1 mm 2 m/S 530 mmHg 78%
16:00 +14°C° 1 mm 2 m/S 530 mmHg 85%
17:00 +13°C° 0.5 mm 2 m/S 530 mmHg 88%
18:00 +12°C° 0.5 mm 1 m/S 530 mmHg 92%
19:00 +12°C° 0.5 mm 1 m/S 530 mmHg 95%
20:00 +12°C° 0.1 mm 1 m/S 530 mmHg 95%
21:00 +10°C° 0.1 mm 0 m/S 530 mmHg 95%
22:00 +10°C° 0.1 mm 0 m/S 530 mmHg 95%
23:00 +10°C° 0 mm 0 m/S 530 mmHg 95%

übermorgen, 1 November, Sonntag

Zeit Temperatur Niederschläge Wind Luftdruck Luftfeuchtigkeit
00:00 +10°C° 0 mm 0 m/S 529 mmHg 95%
01:00 +9°C° 0 mm 0 m/S 529 mmHg 95%
02:00 +9°C° 0 mm 0 m/S 528 mmHg 94%
03:00 +8°C° 0 mm 0 m/S 528 mmHg 93%
04:00 +8°C° 0 mm 0 m/S 528 mmHg 92%
05:00 +9°C° 0 mm 0 m/S 528 mmHg 88%
06:00 +10°C° 0 mm 0 m/S 529 mmHg 85%
07:00 +10°C° 0 mm 0 m/S 530 mmHg 81%
08:00 +13°C° 0 mm 1 m/S 531 mmHg 73%
09:00 +15°C° 0 mm 1 m/S 532 mmHg 66%
10:00 +17°C° 0 mm 2 m/S 534 mmHg 58%
11:00 +17°C° 0.3 mm 2 m/S 533 mmHg 60%
12:00 +17°C° 0.3 mm 2 m/S 533 mmHg 62%
13:00 +18°C° 0.3 mm 3 m/S 532 mmHg 63%
14:00 +17°C° 0.5 mm 3 m/S 532 mmHg 68%
15:00 +16°C° 0.5 mm 3 m/S 531 mmHg 72%
16:00 +14°C° 0.5 mm 3 m/S 530 mmHg 76%
17:00 +14°C° 0.1 mm 2 m/S 530 mmHg 83%
18:00 +12°C° 0.1 mm 2 m/S 529 mmHg 89%
19:00 +11°C° 0.1 mm 1 m/S 529 mmHg 95%
20:00 +11°C° 0 mm 1 m/S 529 mmHg 95%
21:00 +10°C° 0 mm 1 m/S 529 mmHg 94%
22:00 +10°C° 0 mm 1 m/S 529 mmHg 94%
23:00 +9°C° 0 mm 1 m/S 528 mmHg 92%

2 November, Montag

Zeit Temperatur Niederschläge Wind Luftdruck Luftfeuchtigkeit
00:00 +9°C° 0 mm 1 m/S 528 mmHg 91%
01:00 +8°C° 0 mm 1 m/S 527 mmHg 90%
02:00 +8°C° 0 mm 1 m/S 527 mmHg 89%
03:00 +8°C° 0 mm 1 m/S 527 mmHg 87%
04:00 +7°C° 0 mm 1 m/S 526 mmHg 86%
05:00 +8°C° 0 mm 1 m/S 527 mmHg 80%
06:00 +9°C° 0 mm 1 m/S 528 mmHg 74%
07:00 +10°C° 0 mm 1 m/S 529 mmHg 68%
08:00 +13°C° 0 mm 1 m/S 530 mmHg 57%
09:00 +15°C° 0 mm 1 m/S 532 mmHg 46%
10:00 +18°C° 0 mm 2 m/S 533 mmHg 36%
11:00 +18°C° 0 mm 2 m/S 533 mmHg 35%
12:00 +19°C° 0 mm 3 m/S 533 mmHg 35%
13:00 +20°C° 0 mm 3 m/S 533 mmHg 34%
14:00 +19°C° 0 mm 3 m/S 532 mmHg 40%
15:00 +18°C° 0 mm 3 m/S 531 mmHg 46%
16:00 +17°C° 0 mm 3 m/S 530 mmHg 52%
17:00 +14°C° 0 mm 2 m/S 529 mmHg 65%
18:00 +12°C° 0 mm 2 m/S 528 mmHg 77%
19:00 +10°C° 0 mm 1 m/S 527 mmHg 90%
20:00 +9°C° 0 mm 1 m/S 527 mmHg 88%
21:00 +9°C° 0 mm 1 m/S 528 mmHg 87%
22:00 +9°C° 0 mm 1 m/S 528 mmHg 85%
23:00 +9°C° 0 mm 1 m/S 528 mmHg 79%

3 November, Dienstag

Zeit Temperatur Niederschläge Wind Luftdruck Luftfeuchtigkeit
00:00 +8°C° 0 mm 1 m/S 527 mmHg 73%
01:00 +8°C° 0 mm 1 m/S 527 mmHg 67%
02:00 +8°C° 0 mm 1 m/S 527 mmHg 64%
03:00 +8°C° 0 mm 1 m/S 527 mmHg 61%
04:00 +8°C° 0 mm 1 m/S 526 mmHg 58%
05:00 +9°C° 0 mm 1 m/S 527 mmHg 53%
06:00 +10°C° 0 mm 1 m/S 528 mmHg 49%
07:00 +11°C° 0 mm 1 m/S 529 mmHg 45%
08:00 +13°C° 0 mm 1 m/S 531 mmHg 39%
09:00 +16°C° 0 mm 1 m/S 532 mmHg 33%
10:00 +19°C° 0 mm 1 m/S 534 mmHg 27%
11:00 +19°C° 0 mm 2 m/S 534 mmHg 29%
12:00 +19°C° 0 mm 2 m/S 533 mmHg 31%
13:00 +20°C° 0 mm 3 m/S 533 mmHg 33%
14:00 +19°C° 0 mm 3 m/S 532 mmHg 41%
15:00 +17°C° 0 mm 3 m/S 531 mmHg 49%
16:00 +16°C° 0 mm 3 m/S 530 mmHg 57%
17:00 +14°C° 0 mm 2 m/S 529 mmHg 69%
18:00 +12°C° 0 mm 1 m/S 529 mmHg 81%
19:00 +9°C° 0 mm 0 m/S 528 mmHg 93%
20:00 +9°C° 0 mm 0 m/S 528 mmHg 92%
21:00 +11°C° 0 mm 1 m/S 529 mmHg 91%
22:00 +11°C° 0 mm 1 m/S 529 mmHg 90%
23:00 +9°C° 0 mm 0 m/S 529 mmHg 90%

4 November, Mittwoch

Zeit Temperatur Niederschläge Wind Luftdruck Luftfeuchtigkeit
00:00 +9°C° 0 mm 0 m/S 528 mmHg 90%
01:00 +8°C° 0 mm 0 m/S 528 mmHg 89%
02:00 +8°C° 0 mm 0 m/S 527 mmHg 89%
03:00 +7°C° 0 mm 0 m/S 527 mmHg 88%
04:00 +8°C° 0 mm 1 m/S 527 mmHg 87%
05:00 +9°C° 0 mm 1 m/S 528 mmHg 81%
06:00 +10°C° 0 mm 1 m/S 529 mmHg 75%
07:00 +11°C° 0 mm 1 m/S 530 mmHg 69%
08:00 +13°C° 0 mm 1 m/S 531 mmHg 62%
09:00 +15°C° 0 mm 1 m/S 532 mmHg 55%
10:00 +17°C° 0 mm 2 m/S 534 mmHg 49%
11:00 +18°C° 0 mm 2 m/S 533 mmHg 49%
12:00 +19°C° 0 mm 2 m/S 533 mmHg 49%
13:00 +19°C° 0 mm 2 m/S 533 mmHg 49%
14:00 +18°C° 0.3 mm 2 m/S 532 mmHg 60%
15:00 +16°C° 0.3 mm 2 m/S 531 mmHg 70%
16:00 +15°C° 0.3 mm 2 m/S 530 mmHg 81%
17:00 +14°C° 0.2 mm 1 m/S 529 mmHg 86%
18:00 +13°C° 0.2 mm 1 m/S 529 mmHg 91%
19:00 +12°C° 0.2 mm 1 m/S 529 mmHg 96%
20:00 +12°C° 0.1 mm 1 m/S 529 mmHg 96%
21:00 +10°C° 0.1 mm 0 m/S 530 mmHg 95%
22:00 +10°C° 0.1 mm 0 m/S 530 mmHg 95%
23:00 +10°C° 0.1 mm 0 m/S 529 mmHg 95%
Mehr zeigen